Other Surface Observations
Issued by NWS Charleston, SC

Home | Current Version | Previous Version | Text Only | Print | Product List | Glossary On
Versions: 1 2 3 4 5 6 7 8 9 10 11 12 13 14 15 16 17 18 19 20 21 22 23 24 25 26 27 28 29 30 31 32 33 34 35 36 37 38 39 40 41 42 43 44 45 46 47 48 49 50
000
SXUS52 KCHS 180925
OSOCHS

MARINE OBSERVATIONS
NATIONAL WEATHER SERVICE CHARLESTON SC
400 AM EST THU DEC 18 2014

...DOWNTOWN CHARLESTON AND HARBOR...

CITY           SKY/WX    TMP DP  RH WIND       PRES   REMARKS
WATERFRONT PRK   N/A     48 N/A N/A W5          N/A
FORT JOHNSON   NOT AVBL

...LAKE MOULTRIE...

CITY           SKY/WX    TMP DP  RH WIND       PRES   REMARKS
PINOPOLIS        N/A     46  43  87 VRB2      30.00F

...LAKE AND SUPPLEMENTAL COASTAL OBSERVATIONS...

STATION/POSITION TIME  TEMP    WIND        PRES    WAVE   SWELL
                       AIR SEA DIR/SP/G            HT/PER HT/PER/DIR
                 (UTC) (F)     (DEG/KT/KT) (MB)    (FT/S) (FT/S/D)
FORT PULASKI     0900   49 57  290/  7/  9 1019.8F
SAPELO ISLAND    0900   46     320/  2     1020.0S
UPR LAKE MARION  NOT AVBL
WINYAH BAY       0900   43     310/  2     1018.0S
LAKE MURRAY      0900   42      CALM  /  2 1017.9F
ACE BASIN NERRS  0900   43        CALM     1019.0S


...C-MAN AND BUOY OBSERVATIONS...

STATION/POSITION TIME  TEMP    WIND        PRES    WAVE   SWELL
                       AIR SEA DIR/SP/G            HT/PER HT/PER/DIR
                 (UTC) (F)     (DEG/KT/KT) (MB)    (FT/S) (FT/S/D)
BUOY 41004       0900   61 73  270/  8/ 10 1018.6F   2/10   2/10
BUOY 41008       0900   54 57  310/ 10/ 12 1019.3F   1/11
FOLLY BEACH CMAN 0900   48     270/  3/  3 1019.1F
CAPERS NS BUOY   0800   52     270/  6/  6   N/A
FRIPP NS BUOY    NOT AVBL
5E ST. MARYS GA  0900      60                N/A     1/11


STATION/POSITION TIME  TEMP    WIND        PRES    WAVE   SWELL
                       AIR SEA DIR/SP/G            HT/PER HT/PER/DIR
                 (UTC) (F)     (DEG/KT/KT) (MB)    (FT/S) (FT/S/D)
FRYING PAN BUOY  0900   58 66  290/  8/ 10 1019.1F   2/ 3   2/ 90/ 7
BUOY 41025       0900   55                 1017.4S   3/ 4
CAPE LOOKOUT NC  0900   51     320/ 11/ 13 1018.2S
BUOY 41002       0844   69 72  280/ 12/ 16 1017.9F   5/ 7   5/270/ 7
BUOY 41010       0900   70 76  280/ 10/ 14 1019.0F   2/10   2/ 90/10
ST AUGUSTINE FL  0900   48     270/  7/  8 1020.8F

$$



USA.gov is the U.S. government's official web portal to all federal, state and local government web resources and services.